Weather History for Carlsbad, NM

Change the Weather History Date:

Saturday, October 6, 2012

  Actual Average Record
Temperature  
Mean Temperature 54 °F -  
Max Temperature 60 °F 79 °F 96 °F (1956)
Min Temperature 48 °F 53 °F 41 °F (2013)
Degree Days  
Heating Degree Days 11    
Growing Degree Days 4 (Base 50)    
Moisture  
Dew Point 46 °F    
Average Humidity 74    
Maximum Humidity 88    
Minimum Humidity 51    
Precipitation  
Precipitation 0.00 in - - ()
Sea Level Pressure  
Sea Level Pressure 30.07 in    
Wind  
Wind Speed 8 mph (East)    
Max Wind Speed 17 mph    
Max Gust Speed 22 mph    
Visibility 10 miles    
Events Rain    
Averages and records for this station are not official NWS values.
T = Trace of Precipitation, MM = Missing Value Source: NWS Daily Summary

Daily Weather History Graph

Daily Weather History Graph

Search for Another Location

Airport:

Trip Planner

Search our weather history database for the weather conditions in past years. The results will help you decide how hot, cold, wet, or windy it might be!

Date:

Astronomy

Oct. 06, 2012 Rise Set
Actual Time 6:54 AM MDT 6:34 PM MDT
Civil Twilight 6:30 AM MDT 6:59 PM MDT
Nautical Twilight 6:01 AM MDT 7:27 PM MDT
Astronomical Twilight 5:33 AM MDT 7:55 PM MDT
Moon 11:07 PM MDT (10/6) 12:35 PM MDT (10/6)
Length of Visible Light 12h 28m
Length of Day
11h 39m
Waning Gibbous, 65% of the Moon is Illuminated
Oct 6
Waning Gibbous
Oct 8
Last Quarter
Oct 15
New
Oct 21
First Quarter
Oct 29
Full

Hourly Weather History & Observations

Time (MDT) Temp. Dew Point Humidity Pressure Visibility Wind Dir Wind Speed Gust Speed Precip Events Conditions
12:53 AM 60.1 °F 55.9 °F 86% 29.91 in 9.0 mi East 4.6 mph - N/A   Partly Cloudy
1:12 AM 59.0 °F 55.4 °F 88% 30.04 in 8.0 mi East 4.6 mph - N/A   Mostly Cloudy
1:53 AM 60.1 °F 55.0 °F 83% 29.92 in 10.0 mi East 6.9 mph - N/A   Overcast
2:53 AM 59.0 °F 54.0 °F 83% 29.93 in 10.0 mi East 11.5 mph - N/A   Overcast
3:33 AM 57.2 °F 53.6 °F 88% 30.08 in 10.0 mi East 12.7 mph - N/A   Overcast
3:53 AM 57.9 °F 53.1 °F 84% 29.96 in 10.0 mi ENE 10.4 mph - N/A   Overcast
4:53 AM 54.0 °F 48.9 °F 83% 30.00 in 5.0 mi NE 13.8 mph - 0.00 in Rain Light Rain
5:03 AM 53.6 °F 48.2 °F 82% 30.14 in 4.0 mi NE 15.0 mph - 0.00 in Rain Light Rain
5:53 AM 52.0 °F 48.0 °F 86% 30.03 in 10.0 mi ENE 12.7 mph - 0.00 in   Overcast
6:01 AM 51.8 °F 46.4 °F 82% 30.16 in 10.0 mi NE 12.7 mph - N/A   Overcast
6:53 AM 51.1 °F 46.9 °F 86% 30.06 in 10.0 mi NE 10.4 mph - N/A   Overcast
7:15 AM 51.8 °F 46.4 °F 82% 30.18 in 10.0 mi ENE 8.1 mph - N/A   Overcast
7:53 AM 50.0 °F 45.0 °F 83% 30.10 in 10.0 mi East 10.4 mph - N/A   Overcast
8:53 AM 48.9 °F 43.0 °F 80% 30.12 in 10.0 mi East 8.1 mph - N/A   Overcast
9:21 AM 48.2 °F 42.8 °F 82% 30.22 in 10.0 mi ENE 4.6 mph - N/A   Overcast
9:53 AM 50.0 °F 43.0 °F 77% 30.12 in 10.0 mi ENE 4.6 mph - N/A   Overcast
10:53 AM 51.1 °F 43.0 °F 74% 30.10 in 10.0 mi ENE 5.8 mph - N/A   Overcast
11:53 AM 52.0 °F 44.1 °F 74% 30.09 in 10.0 mi SE 8.1 mph - N/A   Overcast
12:53 PM 53.1 °F 44.1 °F 71% 30.07 in 10.0 mi ENE 5.8 mph - N/A   Overcast
1:53 PM 55.0 °F 45.0 °F 69% 30.03 in 10.0 mi Calm Calm - N/A   Overcast
2:53 PM 57.0 °F 46.0 °F 67% 30.00 in 10.0 mi South 5.8 mph - N/A   Overcast
3:38 PM 57.2 °F 46.4 °F 67% 30.08 in 10.0 mi SSE 4.6 mph - N/A   Scattered Clouds
3:53 PM 57.9 °F 46.0 °F 65% 29.99 in 10.0 mi Variable 3.5 mph - N/A   Partly Cloudy
4:16 PM 59.0 °F 46.4 °F 63% 30.07 in 10.0 mi Variable 3.5 mph - N/A   Mostly Cloudy
4:53 PM 57.2 °F 46.4 °F 67% 30.07 in 10.0 mi Calm Calm - N/A   Mostly Cloudy
5:12 PM 59.0 °F 46.4 °F 63% 30.07 in 10.0 mi Calm Calm - N/A   Partly Cloudy
5:53 PM 57.9 °F 46.9 °F 67% 29.99 in 10.0 mi SSW 3.5 mph - N/A   Clear
6:53 PM 55.9 °F 46.9 °F 72% 30.03 in 10.0 mi West 5.8 mph - N/A   Clear
7:53 PM 54.0 °F 48.0 °F 80% 30.07 in 10.0 mi West 4.6 mph - N/A   Mostly Cloudy
8:53 PM 55.0 °F 37.0 °F 51% 30.11 in 10.0 mi East 17.3 mph - N/A   Overcast
9:53 PM 52.0 °F 35.1 °F 53% 30.14 in 10.0 mi East 10.4 mph 21.9 mph N/A   Overcast
10:53 PM 50.0 °F 33.8 °F 54% 30.23 in 10.0 mi ENE 15.0 mph 21.9 mph N/A   Overcast
11:53 PM 48.9 °F 33.1 °F 54% 30.19 in 10.0 mi East 12.7 mph - N/A   Overcast